Regional Weather Roundup
Issued by NWS

Home | Current Version | Previous Version | Graphics & Text | Print | Product List | Glossary On
Versions: 1 2 3 4 5 6 7 8 9 10 11 12 13 14 15 16 17 18 19 20 21 22 23 24 25 26 27 28 29 30 31 32 33 34 35 36 37 38 39 40 41 42 43 44 45 46 47 48 49 50
000
ASUS43 KBIS 230602
RWRND

NORTH DAKOTA REGIONAL WEATHER ROUNDUP
NATIONAL WEATHER SERVICE BISMARCK ND
1200 AM CST TUE JAN 23 2018

NOTE: "FAIR" INDICATES FEW OR NO CLOUDS BELOW 12,000 FEET WITH NO
SIGNIFICANT WEATHER AND/OR OBSTRUCTIONS TO VISIBILITY.


NDZ001>003-009>011-017-230700-
NORTHWEST NORTH DAKOTA

CITY           SKY/WX    TMP DP  RH WIND       PRES   REMARKS
WILLISTON      PTCLDY    21  15  78 SW9       29.99R WCI  11
6HR MIN TEMP:  20; 6HR MAX TEMP:  26;

MINOT          CLOUDY    16  13  88 S8        29.97F WCI   5
MINOT AFB      PTCLDY    14  11  88 S7        29.96F WCI   4
$$

NDZ018>021-031>035-040>046-230700-
SOUTHWEST NORTH DAKOTA

CITY           SKY/WX    TMP DP  RH WIND       PRES   REMARKS
BISMARCK       CLOUDY    22  19  89 SW8       30.03F FOG     WCI  12
6HR MIN TEMP:  22; 6HR MAX TEMP:  23;

DICKINSON      CLOUDY    25  19  78 W13       29.98R WCI  14
GARRISON         N/A     18  15  88 S8        29.98F WCI   8
6HR MIN TEMP:  16; 6HR MAX TEMP:  18;

HETTINGER ARPT CLOUDY    24  18  77 NW8       30.02R WCI  15
$$

NDZ004>008-012>016-024-026-027-054-230700-
NORTHEAST NORTH DAKOTA

CITY           SKY/WX    TMP DP  RH WIND       PRES   REMARKS
GRAND FORKS    CLOUDY    23  18  81 N5        30.07S WCI  17
GRND FRKS AFB  CLOUDY    23  17  77 CALM      30.06F
DEVILS LAKE    CLOUDY    19  18  95 S8        30.04S WCI   9
$$

NDZ022-023-025-028>030-036>039-047>053-230700-
SOUTHEAST NORTH DAKOTA

CITY           SKY/WX    TMP DP  RH WIND       PRES   REMARKS
FARGO          CLOUDY    24  19  81 N12       30.04R WCI  13
6HR MIN TEMP:  24; 6HR MAX TEMP:  26;

JAMESTOWN      CLOUDY    20  20 100 CALM      30.02F
$$





USA.gov is the U.S. government's official web portal to all federal, state and local government web resources and services.